Location: Krasnoyarskiy Pitomnik
(51.1333°N, 71.6167°E)
Time: 23:18:51
(UTC+00:00)

NOSS 2-2 (C) - Pass Details

Date: 31 May 2022
Orbit: 439 x 1763 km, 63.3° (Epoch: 02 June)

Event Time Altitude Azimuth Distance (km) Brightness Sun altitude
Rises 20:32:28 0° 297° (WNW) 3,232 7.3 -14.7°
Reaches altitude 10° 20:36:28 10° 266° (W) 2,597 6.5 -14.5°
Maximum altitude 20:38:29 12° 247° (WSW) 2,618 6.3 -14.4°
Enters shadow 20:39:16 11° 239° (WSW) 2,692 6.4 -14.3°
